FW4257 Weather Reports


time (UTC)temp
C
wind
direction
speed
KPH
gust
KPH
rain 1hr
cm
rain 24hr
cm
rain mn
cm
humidity
%
barometer
mb
20260510153038 6 146 0.0 0.0 0.00 0.00 0.00 93 1032.9
20260510152525 7 146 0.0 0.0 0.00 0.00 0.00 94 1032.9
20260510152014 7 146 0.0 0.0 0.00 0.00 0.00 94 1033.0
20260510151522 7 146 0.0 0.0 0.00 0.00 0.00 95 1033.0
20260510151011 8 146 0.0 0.0 0.00 0.00 0.00 95 1033.0
20260510150451 8 146 0.0 0.0 0.00 0.00 0.00 95 1033.0
20260510145938 8 146 0.0 0.0 0.00 0.00 0.00 95 1033.0
20260510144842 8 146 0.0 0.0 0.00 0.00 0.00 95 1033.0
20260510144024 8 146 0.0 0.0 0.00 0.00 0.00 95 1033.1
20260510143529 8 146 0.0 0.0 0.00 0.03 0.00 95 1033.1
20260510143033 8 146 0.0 0.0 0.00 0.03 0.00 94 1033.0
20260510142217 8 146 0.0 0.0 0.00 0.03 0.00 95 1033.1
20260510141715 8 146 0.0 0.0 0.00 0.03 0.00 94 1033.1
20260510141159 8 146 0.0 0.0 0.00 0.03 0.00 94 1033.1
20260510140658 8 146 0.0 1.6 0.00 0.03 0.00 94 1033.3
20260510140201 8 146 0.0 0.0 0.00 0.03 0.00 94 1033.3
20260510135655 8 146 0.0 0.0 0.00 0.03 0.03 94 1033.3
20260510135157 8 146 0.0 0.0 0.00 0.03 0.03 94 1033.3
20260510134659 8 146 0.0 0.0 0.00 0.03 0.03 94 1033.2
20260510134140 8 146 0.0 0.0 0.00 0.03 0.03 94 1033.3
20260510133634 8 146 0.0 0.0 0.00 0.03 0.03 93 1033.3
20260510133133 8 146 0.0 0.0 0.00 0.03 0.03 93 1033.2
20260510132326 8 146 0.0 0.0 0.00 0.03 0.03 94 1033.3
20260510131835 8 146 0.0 0.0 0.00 0.03 0.03 93 1033.4
20260510131336 9 146 0.0 0.0 0.00 0.03 0.03 93 1033.3
20260510130835 9 146 1.6 0.0 0.00 0.03 0.03 93 1033.3
20260510130325 9 146 0.0 3.2 0.00 0.03 0.03 93 1033.3
20260510125813 9 146 0.0 6.4 0.00 0.03 0.03 93 1033.4
20260510125307 9 146 0.0 3.2 0.00 0.03 0.03 93 1033.4
20260510124503 9 146 0.0 1.6 0.00 0.03 0.03 93 1033.4
20260510124009 9 146 0.0 1.6 0.00 0.03 0.03 93 1033.5
20260510123151 10 146 0.0 0.0 0.00 0.03 0.03 93 1033.5
20260510122647 10 146 0.0 0.0 0.00 0.03 0.03 93 1033.5
20260510121849 10 146 0.0 0.0 0.00 0.03 0.03 93 1033.6
20260510121045 10 146 0.0 0.0 0.00 0.03 0.03 92 1033.6
20260510120245 10 146 0.0 0.0 0.00 0.03 0.03 92 1033.6
20260510115735 10 146 0.0 0.0 0.00 0.03 0.03 91 1033.6
20260510115237 10 146 1.6 4.8 0.00 0.03 0.03 91 1033.6
20260510114745 10 146 1.6 4.8 0.00 0.03 0.03 91 1033.6
20260510114235 10 146 1.6 1.6 0.00 0.03 0.03 91 1033.6
20260510113725 10 146 3.2 6.4 0.00 0.03 0.03 91 1033.5
20260510113234 11 117 3.2 4.8 0.00 0.03 0.03 90 1033.4
20260510112738 11 117 1.6 4.8 0.00 0.03 0.03 90 1033.4
20260510112224 11 117 1.6 4.8 0.00 0.03 0.03 90 1033.4
20260510111710 11 111 0.0 3.2 0.00 0.03 0.03 89 1033.4
20260510110855 11 111 0.0 0.0 0.00 0.03 0.03 89 1033.3
20260510110401 11 111 0.0 6.4 0.00 0.03 0.03 89 1033.3
20260510105606 12 112 1.6 11.3 0.00 0.03 0.03 89 1033.2
20260510105056 12 98 3.2 11.3 0.00 0.03 0.03 88 1033.2
20260510104600 12 97 3.2 11.3 0.00 0.03 0.03 88 1033.2
20260510104053 12 120 3.2 11.3 0.00 0.03 0.03 88 1033.1
20260510103548 12 84 3.2 11.3 0.00 0.03 0.03 87 1033.0
20260510103037 12 111 1.6 11.3 0.00 0.03 0.03 87 1033.0
20260510102224 12 92 1.6 8.0 0.00 0.03 0.03 86 1032.9
20260510101423 12 92 0.0 8.0 0.00 0.03 0.03 85 1032.8
20260510100914 12 92 1.6 12.9 0.00 0.03 0.03 84 1032.6
20260510100412 12 92 3.2 12.9 0.00 0.03 0.03 84 1032.7
20260510095859 12 109 3.2 12.9 0.00 0.03 0.03 84 1032.5
20260510095049 12 105 1.6 12.9 0.00 0.03 0.03 83 1032.5
20260510094540 12 100 0.0 9.7 0.00 0.03 0.03 82 1032.4
20260510094037 13 81 0.0 9.7 0.00 0.03 0.03 81 1032.3
20260510093529 13 96 0.0 9.7 0.00 0.03 0.03 81 1032.2
20260510093009 13 107 1.6 9.7 0.00 0.03 0.03 80 1032.2
20260510092504 13 96 1.6 9.7 0.00 0.03 0.03 79 1032.1
20260510091957 13 109 1.6 9.7 0.00 0.03 0.03 79 1032.0
20260510091459 13 90 3.2 9.7 0.00 0.03 0.03 78 1031.9
20260510091005 13 86 3.2 9.7 0.00 0.03 0.03 78 1031.9
20260510090449 13 111 3.2 9.7 0.00 0.03 0.03 77 1031.7
20260510085955 13 96 1.6 8.0 0.00 0.03 0.03 76 1031.7
20260510085437 13 107 1.6 9.7 0.00 0.03 0.03 75 1031.5
20260510084627 13 76 1.6 9.7 0.00 0.03 0.03 74 1031.4
20260510084117 13 76 1.6 9.7 0.00 0.03 0.03 74 1031.3
20260510083614 14 90 0.0 6.4 0.00 0.03 0.03 73 1031.2
20260510083104 14 82 0.0 4.8 0.00 0.03 0.03 73 1031.1
20260510082245 14 101 0.0 1.6 0.00 0.03 0.03 73 1031.0
20260510081747 14 101 0.0 0.0 0.00 0.03 0.03 72 1030.9
20260510081253 14 101 0.0 0.0 0.00 0.03 0.03 71 1030.7
20260510080802 14 101 0.0 0.0 0.00 0.03 0.03 71 1030.7
20260510080250 15 101 0.0 0.0 0.00 0.03 0.03 70 1030.6
20260510075441 15 101 0.0 0.0 0.00 0.03 0.03 68 1030.5
20260510074933 15 101 0.0 0.0 0.00 0.03 0.03 68 1030.4
20260510074428 15 101 0.0 0.0 0.00 0.03 0.03 67 1030.3
20260510073910 15 101 0.0 0.0 0.00 0.03 0.03 66 1030.2
20260510073407 16 101 0.0 0.0 0.00 0.03 0.03 66 1030.1
20260510072859 16 101 0.0 0.0 0.00 0.03 0.03 65 1030.0
20260510072349 16 101 0.0 3.2 0.00 0.03 0.03 64 1030.0
20260510071842 16 101 0.0 0.0 0.00 0.03 0.03 63 1030.0
20260510071330 16 101 0.0 3.2 0.00 0.03 0.03 62 1029.9
20260510070830 17 86 0.0 3.2 0.00 0.03 0.03 62 1029.8
20260510070016 17 86 0.0 8.0 0.00 0.03 0.03 61 1029.7
20260510065506 17 86 1.6 8.0 0.00 0.03 0.03 60 1029.5
20260510065003 17 88 1.6 11.3 0.00 0.03 0.03 59 1029.5
20260510064509 17 94 1.6 11.3 0.00 0.03 0.03 59 1029.4
20260510064019 18 86 0.0 11.3 0.00 0.03 0.03 59 1029.4
20260510063526 18 82 1.6 11.3 0.00 0.03 0.03 59 1029.3
20260510063006 18 96 1.6 6.4 0.00 0.03 0.03 58 1029.2
20260510062450 18 122 0.0 6.4 0.00 0.03 0.03 57 1029.1
20260510061933 18 80 0.0 4.8 0.00 0.03 0.03 57 1029.1
20260510061415 18 84 0.0 9.7 0.00 0.03 0.03 56 1029.1
20260510060900 19 116 0.0 9.7 0.00 0.03 0.03 56 1029.0
20260510060405 19 97 0.0 9.7 0.00 0.03 0.03 55 1029.0
20260510055908 19 108 0.0 9.7 0.00 0.03 0.03 55 1029.0
20260510054758 19 107 1.6 8.0 0.00 0.03 0.03 53 1028.9
20260510054247 19 104 1.6 9.7 0.00 0.03 0.03 53 1028.9
20260510053732 19 83 1.6 9.7 0.00 0.03 0.03 53 1029.0
20260510053232 19 87 1.6 9.7 0.00 0.03 0.03 52 1028.9
20260510052725 19 126 1.6 9.7 0.00 0.03 0.03 53 1028.9
20260510052211 19 119 1.6 9.7 0.00 0.03 0.03 52 1028.8
20260510051716 20 107 0.0 4.8 0.00 0.03 0.03 52 1028.8
20260510051219 20 115 0.0 9.7 0.00 0.03 0.03 52 1028.9
20260510050723 20 111 0.0 4.8 0.00 0.03 0.03 51 1028.8
20260510050218 20 98 0.0 0.0 0.00 0.03 0.03 51 1028.8
20260510045724 20 122 0.0 1.6 0.00 0.03 0.03 52 1028.9
20260510045225 20 101 0.0 0.0 0.00 0.03 0.03 52 1028.8
20260510044128 20 123 0.0 6.4 0.00 0.03 0.03 52 1028.8
20260510043327 20 106 1.6 12.9 0.00 0.03 0.03 52 1028.8
20260510042812 20 126 0.0 12.9 0.00 0.03 0.03 52 1028.8
20260510042300 20 86 0.0 0.0 0.00 0.03 0.03 51 1028.8
20260510041741 20 143 0.0 11.3 0.00 0.03 0.03 51 1028.9
20260510040937 19 110 0.0 3.2 0.00 0.03 0.03 53 1028.9
20260510040433 19 97 0.0 11.3 0.00 0.03 0.03 51 1028.9
20260510035921 19 94 1.6 14.5 0.00 0.03 0.03 53 1028.9
20260510035419 19 105 3.2 14.5 0.00 0.03 0.03 54 1029.0
20260510034926 19 123 3.2 14.5 0.00 0.03 0.03 54 1029.0
20260510034113 19 117 4.8 12.9 0.00 0.03 0.03 55 1029.1
20260510033601 19 120 3.2 12.9 0.00 0.03 0.03 55 1029.2
20260510033055 19 121 1.6 12.9 0.00 0.03 0.03 55 1029.2
20260510032536 19 93 0.0 0.0 0.00 0.03 0.03 55 1029.3
20260510032044 18 92 1.6 4.8 0.00 0.03 0.03 56 1029.3
20260510031545 18 159 1.6 12.9 0.00 0.03 0.03 57 1029.3
20260510030745 18 136 1.6 12.9 0.00 0.03 0.03 57 1029.5
20260510030242 18 134 0.0 8.0 0.00 0.03 0.03 58 1029.6
20260510025725 18 103 1.6 4.8 0.00 0.03 0.03 58 1029.6
20260510024923 18 75 3.2 14.5 0.00 0.03 0.03 58 1029.7
20260510024422 18 131 3.2 14.5 0.00 0.03 0.03 59 1029.7
20260510023902 18 109 1.6 11.3 0.00 0.03 0.03 59 1029.9
20260510023345 18 108 1.6 11.3 0.00 0.03 0.03 60 1029.9
20260510022846 18 63 3.2 14.5 0.00 0.03 0.03 60 1030.1
20260510022347 18 133 4.8 17.7 0.00 0.03 0.03 60 1030.1
20260510021543 18 91 4.8 17.7 0.00 0.03 0.03 61 1030.3
20260510020739 17 85 4.8 17.7 0.00 0.03 0.03 63 1030.4
20260510015935 17 110 1.6 12.9 0.00 0.00 0.00 62 1030.6
20260510015420 17 95 0.0 8.0 0.00 0.00 0.00 63 1030.5
20260510014916 17 95 0.0 4.8 0.00 0.00 0.00 64 1030.6
20260510014417 17 83 0.0 9.7 0.00 0.00 0.00 64 1030.7
20260510013900 17 123 0.0 6.4 0.00 0.00 0.00 64 1030.8
20260510013355 17 95 0.0 9.7 0.00 0.00 0.00 65 1030.8
20260510012836 17 108 0.0 12.9 0.00 0.00 0.00 66 1030.9
20260510012037 16 84 0.0 0.0 0.00 0.00 0.00 70 1030.9
20260510011245 15 115 0.0 0.0 0.00 0.00 0.00 74 1031.1
20260510010726 15 114 0.0 0.0 0.00 0.00 0.00 76 1031.2
20260510010218 15 113 0.0 4.8 0.00 0.00 0.00 79 1031.2
20260510005719 15 109 0.0 4.8 0.00 0.00 0.00 82 1031.3
20260510005202 14 98 0.0 0.0 0.00 0.00 0.00 87 1031.4
20260510004705 13 76 0.0 0.0 0.00 0.00 0.00 90 1031.4
20260510004209 13 96 0.0 0.0 0.00 0.00 0.00 94 1031.4
20260510003406 12 84 0.0 0.0 0.00 0.00 0.00 97 1031.5
20260510002901 12 132 0.0 9.7 0.00 0.00 0.00 98 1031.5
20260510002348 11 156 0.0 0.0 0.00 0.00 0.00 98 1031.6
20260510001846 11 156 0.0 0.0 0.00 0.00 0.00 98 1031.5
20260510001326 11 165 0.0 0.0 0.00 0.00 0.00 98 1031.6
20260510000831 10 165 0.0 0.0 0.00 0.00 0.00 98 1031.5
20260510000011 10 165 0.0 0.0 0.00 0.00 0.00 98 1031.6
20260509235456 10 165 0.0 0.0 0.00 0.00 0.00 98 1031.6
20260509235005 9 165 0.0 0.0 0.00 0.00 0.00 98 1031.5
20260509234447 9 165 0.0 0.0 0.00 0.00 0.00 98 1031.6
20260509233627 8 165 0.0 0.0 0.00 0.00 0.00 98 1031.6
20260509233133 8 165 0.0 0.0 0.00 0.00 0.00 98 1031.6
20260509232616 8 165 0.0 0.0 0.00 0.00 0.00 98 1031.6
20260509232104 7 165 0.0 0.0 0.00 0.00 0.00 98 1031.6
20260509231304 7 165 0.0 0.0 0.00 0.00 0.00 98 1031.6
20260509230452 6 165 0.0 0.0 0.00 0.00 0.00 98 1031.6
20260509230001 6 165 0.0 0.0 0.00 0.00 0.00 98 1031.6
20260509225448 6 165 0.0 0.0 0.00 0.00 0.00 98 1031.6
20260509224952 5 165 0.0 0.0 0.00 0.00 0.00 98 1031.6
20260509224446 5 240 0.0 0.0 0.00 0.00 0.00 98 1031.7
20260509223942 4 240 0.0 0.0 0.00 0.00 0.00 97 1031.6
20260509223440 4 240 0.0 0.0 0.00 0.00 0.00 97 1031.6
20260509222928 3 240 0.0 0.0 0.00 0.00 0.00 98 1031.5
20260509222430 3 240 0.0 0.0 0.00 0.00 0.00 97 1031.5
20260509221931 2 240 0.0 0.0 0.00 0.00 0.00 97 1031.5
20260509221440 2 240 0.0 0.0 0.00 0.00 0.00 97 1031.4
20260509220948 2 240 0.0 0.0 0.00 0.00 0.00 97 1031.4
20260509220130 1 240 0.0 0.0 0.00 0.00 0.00 97 1031.4
20260509215633 1 240 0.0 0.0 0.00 0.00 0.00 97 1031.2
20260509215136 1 240 0.0 0.0 0.00 0.00 0.00 97 1031.2
20260509214625 1 240 0.0 0.0 0.00 0.00 0.00 97 1031.1
20260509214126 0 240 0.0 0.0 0.00 0.00 0.00 97 1031.1
20260509213607 0 240 0.0 0.0 0.00 0.00 0.00 97 1031.1
20260509213104 0 240 0.0 0.0 0.00 0.00 0.00 97 1030.9
20260509212612 0 240 0.0 0.0 0.00 0.00 0.00 96 1030.8
20260509212055 0 240 0.0 0.0 0.00 0.00 0.00 96 1030.8
20260509211545 0 240 0.0 0.0 0.00 0.00 0.00 96 1030.8
20260509211038 0 240 0.0 0.0 0.00 0.00 0.00 96 1030.8
20260509210525 0 240 0.0 0.0 0.00 0.00 0.00 96 1030.6
20260509210015 0 240 0.0 0.0 0.00 0.00 0.00 96 1030.6
20260509205456 0 240 0.0 0.0 0.00 0.00 0.00 96 1030.5
20260509204944 0 240 0.0 0.0 0.00 0.00 0.00 96 1030.4
20260509204440 0 240 0.0 0.0 0.00 0.00 0.00 96 1030.4
20260509203921 0 240 0.0 0.0 0.00 0.00 0.00 96 1030.3
20260509203426 0 240 0.0 0.0 0.00 0.00 0.00 96 1030.3
20260509202623 0 240 0.0 0.0 0.00 0.00 0.00 96 1030.2
20260509201803 0 240 0.0 0.0 0.00 0.00 0.00 96 1030.0
20260509201303 0 240 0.0 0.0 0.00 0.00 0.00 96 1030.0
20260509200743 0 240 0.0 0.0 0.00 0.00 0.00 96 1030.0
20260509200234 0 240 0.0 0.0 0.00 0.00 0.00 96 1029.9
20260509195742 0 240 0.0 0.0 0.00 0.00 0.00 96 1029.8
20260509194647 0 240 0.0 0.0 0.00 0.00 0.00 96 1029.7
20260509194150 1 240 0.0 0.0 0.00 0.00 0.00 96 1029.6
20260509193057 0 240 0.0 0.0 0.00 0.00 0.00 96 1029.5
20260509192253 1 240 0.0 0.0 0.00 0.00 0.00 96 1029.4
20260509191800 1 240 0.0 0.0 0.00 0.00 0.00 96 1029.3
20260509191300 1 240 0.0 0.0 0.00 0.00 0.00 96 1029.3
20260509190744 1 240 0.0 0.0 0.00 0.00 0.00 96 1029.2
20260509190248 1 240 0.0 0.0 0.00 0.00 0.00 96 1029.2
20260509185744 1 240 0.0 0.0 0.00 0.00 0.00 96 1029.1
20260509185231 1 240 0.0 0.0 0.00 0.00 0.00 96 1029.1
20260509184718 1 240 0.0 0.0 0.00 0.00 0.00 96 1029.0
20260509183908 1 240 0.0 0.0 0.00 0.00 0.00 96 1028.9
20260509183356 1 240 0.0 0.0 0.00 0.00 0.00 96 1028.7
20260509182536 1 240 0.0 0.0 0.00 0.00 0.00 96 1028.7
20260509182040 1 240 0.0 0.0 0.00 0.00 0.00 96 1028.6
20260509181545 1 240 0.0 0.0 0.00 0.00 0.00 96 1028.6
20260509181034 1 240 0.0 0.0 0.00 0.00 0.00 96 1028.6
20260509180517 1 240 0.0 0.0 0.00 0.00 0.00 96 1028.6
20260509180003 1 240 0.0 0.0 0.00 0.00 0.00 96 1028.5
20260509175510 1 240 0.0 0.0 0.00 0.00 0.00 96 1028.5
20260509175014 1 240 0.0 0.0 0.00 0.00 0.00 96 1028.5
20260509174520 1 240 0.0 0.0 0.00 0.00 0.00 96 1028.5
20260509174007 1 240 0.0 0.0 0.00 0.00 0.00 95 1028.4
20260509173448 1 240 0.0 0.0 0.00 0.00 0.00 96 1028.4
20260509172952 1 240 0.0 0.0 0.00 0.00 0.00 96 1028.4
20260509172445 1 240 0.0 0.0 0.00 0.00 0.00 96 1028.4
20260509171626 1 240 0.0 0.0 0.00 0.00 0.00 96 1028.3
20260509171109 1 240 0.0 0.0 0.00 0.00 0.00 96 1028.3
20260509170557 1 240 0.0 0.0 0.00 0.00 0.00 96 1028.3
20260509165802 1 240 0.0 0.0 0.00 0.00 0.00 96 1028.2
20260509165247 1 240 0.0 0.0 0.00 0.00 0.00 96 1028.2
20260509164730 1 240 0.0 0.0 0.00 0.00 0.00 96 1028.2
20260509163932 1 240 0.0 0.0 0.00 0.00 0.00 96 1028.3
20260509163139 1 240 0.0 0.0 0.00 0.00 0.00 95 1028.3
20260509162623 1 240 0.0 0.0 0.00 0.00 0.00 95 1028.3
20260509162123 1 240 0.0 0.0 0.00 0.00 0.00 96 1028.4
20260509161611 2 240 0.0 0.0 0.00 0.00 0.00 95 1028.4
20260509161059 2 240 0.0 0.0 0.00 0.00 0.00 95 1028.6
20260509160247 2 240 0.0 0.0 0.00 0.00 0.00 96 1028.6
20260509155732 2 240 0.0 0.0 0.00 0.00 0.00 96 1028.5
20260509154933 2 240 0.0 0.0 0.00 0.00 0.00 95 1028.6
20260509154428 2 240 0.0 0.0 0.00 0.00 0.00 95 1028.5
20260509153930 2 240 0.0 0.0 0.00 0.00 0.00 95 1028.6